Weather in Basan

Ukraine / Zaporizhia Region     47°23′35″N   36°09′39″E
temp.,
°C
wind,
m/s
gust,
m/s
humid.,
%
clouds,
%
prec.,
mm/h
press.,
hPa
HPBL,
m
29 july, thu
thu2900:00+21ssw49575 0.0 1015155
03:00+21sw496298 0.0 1015152
06:00+21sw37701 0.0 1013123
09:00+27wsw57480 0.0 1013613
12:00+31sw56410 0.0 10121621
15:00+33wsw453660 0.0 10112871
18:00+30ssw674576 0.0 1010822
21:00+23wsw51081100 4.9 1012319
30 july, fri
fri3000:00+22sw227835 0.1 101124
03:00+20sw398724 0.3 1010203
06:00+20s338549 0.9 101069
09:00+25sw4566100 1.3 1010464
12:00+30sw444791 0.0 10091214
15:00+28sw4545100 0.1 1009537
18:00+28sw35575 0.4 1008385
21:00+23ssw48787 0.7 1008127
31 july, sat
sat3100:00+23sw238082 0.3 100874
03:00+21wnw1183100 1.1 100812
06:00+20n35910 0.0 1009159
09:00+25nne4567100 0.0 1010549
12:00+29n45525 0.0 10101333
15:00+30nne4546100 0.2 10092087
18:00+28n455645 0.1 1010585
21:00+25nne366346 0.1 1011112
1 august, sun
sun100:00+24nne346450 0.0 101090
03:00+22nne347161 0.0 101177
06:00+21ne357932 0.0 1011116
09:00+27ne33590 0.0 1011556
12:00+30ne33460 0.0 10111656
15:00+32nne323785 0.0 10102553
18:00+29ssw235679 0.0 101099
21:00+26nnw33575 0.0 101037
2 august, mon
mon200:00+24nnw11600 0.0 101011
03:00+22n11630 0.0 101011
06:00+22nne12640 0.0 101011
09:00+29nnw33481 0.0 1010426
12:00+33nnw22340 0.0 10101838
15:00+34wsw23270 0.0 10092527
18:00+34ssw22280 0.0 10072227
21:00+27sw33440 0.0 100923